This is the latest recevied weather packets stored in our database for station/object KF0JHJ. If no packets are shown the sender has not sent any weather packets the latest 10 day(s).
| Time | Temp. | Humidity | Pressure | Rain* | Wind** | Luminosity | Snow |
|---|---|---|---|---|---|---|---|
| 1778080655 | 3.89° C | 60% | 1014.9 hPa | - | - | 91 W/m² | - |
| 1778080352 | 3.89° C | 60% | 1015.1 hPa | - | - | 84 W/m² | - |
| 1778080048 | 3.89° C | 60% | 1015 hPa | - | - | 83 W/m² | - |
| 1778079745 | 3.89° C | 60% | 1014.9 hPa | - | - | 83 W/m² | - |
| 1778079442 | 3.89° C | 60% | 1014.9 hPa | - | - | 79 W/m² | - |
| 1778079138 | 3.89° C | 61% | 1014.9 hPa | - | - | 78 W/m² | - |
| 1778078836 | 3.89° C | 62% | 1015 hPa | - | - | 77 W/m² | - |
| 1778078533 | 3.33° C | 63% | 1015.1 hPa | - | - | 78 W/m² | - |
| 1778078231 | 3.33° C | 62% | 1015.1 hPa | - | - | 75 W/m² | - |
| 1778077929 | 3.33° C | 63% | 1015.1 hPa | - | - | 73 W/m² | - |
| 1778077627 | 3.33° C | 62% | 1014.9 hPa | - | - | 73 W/m² | - |
| 1778077324 | 3.33° C | 63% | 1014.9 hPa | - | - | 72 W/m² | - |
| 1778077022 | 3.33° C | 64% | 1014.9 hPa | - | - | 69 W/m² | - |
| 1778076720 | 3.33° C | 65% | 1015 hPa | - | - | 65 W/m² | - |
| 1778076417 | 2.78° C | 64% | 1014.9 hPa | - | - | 57 W/m² | - |
| 1778076114 | 2.78° C | 65% | 1014.7 hPa | - | - | 49 W/m² | - |
| 1778075811 | 2.78° C | 64% | 1014.9 hPa | - | - | 45 W/m² | - |
| 1778075507 | 2.78° C | 65% | 1015 hPa | - | - | 39 W/m² | - |
| 1778075203 | 2.78° C | 67% | 1014.9 hPa | - | - | 38 W/m² | - |
| 1778074899 | 2.78° C | 66% | 1015 hPa | - | - | 34 W/m² | - |
| 1778074597 | 2.78° C | 66% | 1014.8 hPa | - | - | 33 W/m² | - |
| 1778074294 | 2.78° C | 66% | 1015 hPa | - | - | 33 W/m² | - |
| 1778073991 | 2.22° C | 66% | 1014.8 hPa | - | - | 31 W/m² | - |
| 1778073688 | 2.22° C | 66% | 1014.8 hPa | - | - | 31 W/m² | - |
| 1778073385 | 2.22° C | 66% | 1015 hPa | - | - | 28 W/m² | - |
* Rain since midnight (hover to see other rain measurements)
** Current wind speed in m/s (hover to see current wind gust speed)